Rome, GA

2:35 AM EDT on October 23, 2019 (GMT -0400)
Russell

Weather History for KRMG - August, 2019

Change the Weather History Date:

Thursday, August 22, 2019

  Actual Average Record
Temperature  
Mean Temperature 83 °F 78 °F  
Max Temperature 93 °F 89 °F 105 °F (2007)
Min Temperature 72 °F 67 °F 7 °F (1996)
Cooling Degree Days 18 13  
Month to date cooling degree days 383 310  
Year to date cooling degree days 1651 1254  
Since 1 June cooling degree days 1277 1086  
Growing Degree Days 33 (Base 50)    
Moisture  
Dew Point 70 °F    
Average Humidity 67    
Maximum Humidity 87    
Minimum Humidity 44    
Precipitation  
Precipitation T in 0.13 in 0.18 in (2015)
Month to date precipitation 3.04 2.98  
Year to date precipitation 39.80 34.27  
Sea Level Pressure  
Sea Level Pressure 29.99 in    
Wind  
Wind Speed 3 mph ()    
Max Wind Speed 15 mph    
Max Gust Speed 21 mph    
Visibility 10.0 miles    
Events Thunderstorm    
T = Trace of Precipitation, MM = Missing Value Source: Averaged Metar Reports

Daily Weather History Graph

Daily Weather History Graph

Search for Another Location

Airport or City:

Astronomy

Aug. 22, 2019 Rise Set
Actual Time 7:06 AM EDT 8:19 PM EDT
Civil Twilight 6:40 AM EDT 8:46 PM EDT
Nautical Twilight 6:09 AM EDT 9:17 PM EDT
Astronomical Twilight 5:36 AM EDT 9:49 PM EDT
Moon No Moon Rise 1:24 PM EDT (8/22)
Length of Visible Light 14h 05m
Length of Day
13h 13m
Waning Gibbous, 60% of the Moon is Illuminated
Aug 22
Waning Gibbous
Aug 23
Last Quarter
Aug 30
New
Sep 5
First Quarter
Sep 14
Full

Hourly Weather History & Observations

Time (EDT) Temp. Heat Index Dew Point Humidity Pressure Visibility Wind Dir Wind Speed Gust Speed Precip Events Conditions
12:53 AM 79.0 °F - 70.0 °F 74% 30.01 in 10.0 mi Calm Calm - N/A   Clear
1:53 AM 75.0 °F - 71.1 °F 87% 29.99 in 10.0 mi Calm Calm - N/A   Clear
2:53 AM 75.9 °F - 71.1 °F 85% 29.99 in 10.0 mi Calm Calm - N/A   Clear
3:53 AM 75.9 °F - 69.1 °F 79% 29.99 in 10.0 mi SW 3.5 mph - N/A   Clear
4:53 AM 75.0 °F - 69.1 °F 82% 30.01 in 10.0 mi Calm Calm - N/A   Clear
5:53 AM 73.9 °F - 69.1 °F 85% 30.03 in 10.0 mi Calm Calm - N/A   Scattered Clouds
6:53 AM 73.0 °F - 69.1 °F 87% 30.04 in 10.0 mi Calm Calm - N/A   Clear
7:53 AM 73.9 °F - 70.0 °F 87% 30.05 in 10.0 mi Calm Calm - N/A   Clear
8:53 AM 79.0 °F - 71.1 °F 77% 30.06 in 10.0 mi South 4.6 mph - N/A   Clear
9:53 AM 82.9 °F 87.0 °F 70.0 °F 65% 30.06 in 10.0 mi WSW 4.6 mph - N/A   Clear
10:53 AM 88.0 °F 92.9 °F 70.0 °F 55% 30.05 in 10.0 mi NNW 5.8 mph - N/A   Scattered Clouds
11:53 AM 88.0 °F 92.9 °F 70.0 °F 55% 30.04 in 10.0 mi Calm Calm - N/A   Scattered Clouds
12:53 PM 90.0 °F 95.4 °F 70.0 °F 52% 30.03 in 10.0 mi South 8.1 mph - N/A   Partly Cloudy
1:53 PM 91.0 °F 95.2 °F 68.0 °F 47% 30.00 in 10.0 mi Calm Calm - N/A   Partly Cloudy
2:53 PM 91.0 °F 95.2 °F 68.0 °F 47% 29.97 in 10.0 mi SSE 6.9 mph - N/A   Mostly Cloudy
3:53 PM 91.0 °F 94.3 °F 66.9 °F 45% 29.94 in 10.0 mi SSW 9.2 mph - N/A   Mostly Cloudy
4:53 PM 87.1 °F 91.3 °F 69.1 °F 55% 29.93 in 10.0 mi South 12.7 mph 20.7 mph N/A   Mostly Cloudy
5:53 PM 90.0 °F 95.4 °F 70.0 °F 52% 29.92 in 10.0 mi South 5.8 mph - N/A   Mostly Cloudy
6:28 PM 89.6 °F 96.2 °F 71.6 °F 55% 29.95 in 10.0 mi SSE 5.8 mph - N/A Thunderstorm Scattered Clouds
6:43 PM 88.0 °F 93.8 °F 71.1 °F 57% 29.95 in 10.0 mi South 12.7 mph - N/A   Mostly Cloudy
6:53 PM 86.0 °F 91.5 °F 71.1 °F 61% 29.93 in 10.0 mi South 10.4 mph - N/A   Overcast
7:04 PM 86.0 °F 90.7 °F 70.0 °F 59% 29.95 in 10.0 mi SSE 9.2 mph - N/A Thunderstorm Thunderstorm
7:22 PM 86.0 °F 90.7 °F 70.0 °F 59% 29.96 in 10.0 mi Calm Calm - N/A Thunderstorm Scattered Clouds
7:48 PM 86.0 °F 91.8 °F 71.6 °F 62% 29.96 in 10.0 mi South 5.8 mph - N/A   Partly Cloudy
7:53 PM 86.0 °F 91.5 °F 71.1 °F 61% 29.94 in 10.0 mi SSE 4.6 mph - N/A   Clear
8:23 PM 82.9 °F 87.0 °F 70.0 °F 65% 29.97 in 10.0 mi South 6.9 mph - N/A Thunderstorm Mostly Cloudy
8:42 PM 82.0 °F 85.9 °F 70.0 °F 67% 29.97 in 10.0 mi Calm Calm - N/A   Clear
9:53 PM 77.0 °F - 70.0 °F 79% 29.97 in 10.0 mi Calm Calm - N/A   Clear
10:53 PM 78.1 °F - 71.1 °F 79% 29.98 in 10.0 mi ESE 4.6 mph - N/A   Mostly Cloudy
11:53 PM 77.0 °F - 71.1 °F 82% 29.99 in 10.0 mi Calm Calm - N/A   Partly Cloudy